星链-31361 (STARLINK-31361 )

导读 | 豆包AI

STARLINK-31361是美国太空探索技术公司(SpaceX)星链卫星互联网项目的成员,于2024年2月15日成功发射。星链计划旨在搭建覆盖全球的低轨卫星互联网星座,该卫星入轨后,将和其他星链卫星协同工作,为全球多地用户提供高速网络接入服务,助力实现全球无缝网络覆盖。

基本信息
目录编号:
58974
目录名称:
STARLINK-31361
国际标识:
2024-031K
轨道中心:
EARTH
卫星名称:
星链-31361
卫星全名:
星链-31361 (STARLINK-31361 )
卫星状态:
在轨 (已飞行759 天)
发射日期:
2024-02-15 UTC
国别 :
美国 (US)
星等 :
--
轨道信息
数据来源 国际轨道数据 AOE轨道数据
星历时间 2026-03-15T21:37:23+0800
10小时前
查看轨道信息
2026-03-16T03:00:00+0800
4小时前
查看轨道信息
半长轴 6853.439km 6853.374km
偏心率 0.0001509 0.0000483
轨道倾角 53.161° 53.160°
近地点辐角 93.136° 40.367°
升交点赤经 269.353° 268.320°
平近点角 266.981° 114.568°
近地点 474.267km 474.905km
远地点 476.337km 475.569km
周期 94.107分钟 94.106分钟
每日圈数 15.301709 15.301929
详细信息
固有亮度:
5
最大亮度:
0.3
卫星平台:
Starlink v2.0 mini
覆盖范围:
全球
运营商:
太空探索技术公司
运营商所在国:
美国
制造商(研发单位):
太空探索技术公司
制造商所在国:
美国
使用方式:
暂无
卫星简介
星链(Starlink)计划是由太空探索技术公司(SpaceX)提出的一个巨型低轨卫星互联网星座项目,计划在2019年至2024年间在太空搭建由约1.2万颗卫星组成的“星链”网络,其中1584颗将部署在地球上空550千米处的近地轨道,并从2020年开始工作。该卫星仍在工作。
2D轨道图
3D轨道图
轨道高度分析图
轨道倾角分析图
轨道综合分析图
查看轨道综合分析图